Regional Weather Roundup
Issued by NWS San Angelo, TX

Home | Current Version | Previous Version | Text Only | Print | Product List | Glossary On
Versions: 1 2 3 4 5 6 7 8 9 10 11 12 13 14 15 16 17 18 19 20 21 22 23 24 25 26 27 28 29 30 31 32 33 34 35 36 37 38 39 40 41 42 43 44 45 46 47 48 49 50
000
ASUS44 KSJT 311810
RWRSJT
WEST CENTRAL TEXAS REGIONAL WEATHER ROUNDUP
NATIONAL WEATHER SERVICE SAN ANGELO TX
100 PM CDT MON AUG 31 2015

NOTE: "FAIR" INDICATES FEW OR NO CLOUDS BELOW 12,000 FEET WITH NO
SIGNIFICANT WEATHER AND/OR OBSTRUCTIONS TO VISIBILITY.

TXZ049-054-064>066-071>073-076>078-098-099-113-114-127-128-139-140-
154-155-168>170-311900
...LOCATIONS ACROSS WEST CENTRAL TEXAS...

CITY           SKY/WX    TMP DP  RH WIND       PRES   REMARKS
SAN ANGELO     MOSUNNY   91  60  35 S8        30.04F
ABILENE        SUNNY     89  61  38 SW8       30.05F
DYESS AFB      MOSUNNY   91  63  38 VRB2      30.03F
JUNCTION       MOSUNNY   87  64  46 VRB6      30.05F
SWEETWATER     SUNNY     89  55  31 S6        30.08F
BROWNWOOD      NOT AVBL
COLEMAN        CLEAR     89  64  42 SE6       30.05F
SONORA         SUNNY     88  61  40 SW9       30.10F
OZONA          FAIR      88  59  37 SE13G18   30.09F
BRADY          MOSUNNY   90  61  37 VRB5      30.05F
$$

TEXAS PANHANDLE/OKLAHOMA PANHANDLE

CITY           SKY/WX    TMP DP  RH WIND       PRES   REMARKS
AMARILLO       SUNNY     87  53  31 S21       30.07F
BORGER         SUNNY     90  53  28 SW12G24   30.02F
CANADIAN       SUNNY     92  54  27 SW18G24   29.98F
DALHART        LGT RAIN  89  53  29 SW16G28   30.04F
DUMAS          CLEAR     87  51  29 S22       30.03F
GUYMON         NOT AVBL
HEREFORD       CLEAR     87  54  32 S15G24    30.09S
PAMPA          CLEAR     89  51  26 S20       30.05F
PERRYTON       SUNNY     91  54  28 S16       30.00F
$$

SOUTHERN PANHANDLE/SOUTH PLAINS/ROLLING PLAINS

CITY           SKY/WX    TMP DP  RH WIND       PRES   REMARKS
LUBBOCK        SUNNY     88  47  24 S16       30.08F
SNYDER         SUNNY     87  59  38 SE7       30.06F
CHILDRESS      SUNNY     91  59  33 SE10      30.01F
SEMINOLE       CLEAR     88  47  24 S8        30.10F
$$

PERMIAN BASIN

CITY           SKY/WX    TMP DP  RH WIND       PRES   REMARKS
MIDLAND        SUNNY     88  55  32 SE9G22    30.06F
ODESSA         SUNNY     88  53  30 SE15      30.08F
WINK           SUNNY     90  53  28 SE12      30.04F
$$

FAR WEST/SOUTHWEST MOUNTAINS/TRANS PECOS

CITY           SKY/WX    TMP DP  RH WIND       PRES   REMARKS
ALPINE         CLEAR     85  45  24 S5        30.20F
DRYDEN           N/A     90  62  39 SE6G17    30.03F
EL PASO        SUNNY     87  46  24 S7        30.09F
FORT STOCKTON  SUNNY     90  52  27 S8        30.07S
GUADALUPE PASS SUNNY     83  50  31 SW13      30.22F
MARFA          SUNNY     82  48  30 SW7       30.20S
PECOS          CLEAR     90  51  26 E7        30.03F
$$

DALLAS/FORT WORTH METROPLEX

CITY           SKY/WX    TMP DP  RH WIND       PRES   REMARKS
DFW AIRPORT    MOSUNNY   91  63  39 E9        30.02F
FTW MEACHAM    SUNNY     92  64  39 E8        30.01F
DAL-EXECUTIVE  MOSUNNY   91  63  39 SE9       30.02F
GRAND PRAIRIE  SUNNY     88  64  45 S7        30.04F
ADDISON        SUNNY     90  59  35 E7G14     30.04F
MESQUITE       PTCLDY    90  63  40 S6        30.03F
LANCASTER      PTCLDY    89  62  40 CALM      30.03F
$$

NORTH CENTRAL TEXAS

CITY           SKY/WX    TMP DP  RH WIND       PRES   REMARKS
SHRMAN/DENISON CLEAR     93  63  37 SE10G17   30.04F
GAINESVILLE    SUNNY     91  62  38 SE13      30.05S
BRIDGEPORT     PTCLDY    91  66  43 SE6       30.04F
DENTON         SUNNY     90  65  43 SE7G17    30.02F
WAXAHACHIE     PTCLDY    89  66  45 E5        30.04F
GRANBURY       PTCLDY    90  64  42 E5        30.03F
$$

WESTERN NORTH TEXAS

CITY           SKY/WX    TMP DP  RH WIND       PRES   REMARKS
WICHITA FALLS  SUNNY     92  62  36 S14       30.00F
VERNON         CLEAR     92  50  23 S6        30.00F
BRECKENRIDGE   CLEAR     92  58  31 S5        30.02F HAZE
COMANCHE       SUNNY     90  63  39 E8        30.05F
$$

CENTRAL AND SOUTH CENTRAL TEXAS

CITY           SKY/WX    TMP DP  RH WIND       PRES   REMARKS
AUSTIN/BERGSTM MOSUNNY   90  66  45 VRB3      30.01F
WACO           SUNNY     89  67  47 S6        30.03F
HILLSBORO      CLEAR     88  63  43 SE3       30.03F
TEMPLE         MOSUNNY   88  64  45 S5        30.04S
KILLEEN-GRAY   PTSUNNY   90  64  42 SE9       30.03F
FORT HOOD      MOSUNNY   88  66  48 SE8       30.02F
GEORGETOWN     PTSUNNY   90  66  45 S7        30.04F
LAGO VISTA     MOCLDY    88  64  44 S6        30.06F
SAN MARCOS     NOT AVBL
NEW BRAUNFELS  MOSUNNY   92  67  43 SW9       30.01F
RANDOLPH AFB   MOSUNNY   90  65  42 VRB5      30.02F
SAN ANTONIO    PTSUNNY   90  67  46 S9        30.03F
STINSON        SUNNY     91  67  44 E9        30.00F
PLEASANTON     NOT AVBL
LA GRANGE      MOSUNNY   91  72  52 E3        30.01S
GIDDINGS       CLEAR     91  66  43 S5        30.07S
$$

EAST TEXAS

CITY           SKY/WX    TMP DP  RH WIND       PRES   REMARKS
PARIS          SUNNY     90  63  40 S9        30.04F
CLARKSVILLE    NOT AVBL
TYLER          PTSUNNY   86  66  51 CALM      30.05F
LONGVIEW       MOSUNNY   87  68  52 CALM      30.05F
PALESTINE      PTCLDY    88  68  52 S3        30.05F
NACOGDOCHES    SUNNY     88  64  45 SE8       30.05S
$$

TEXAS HILL COUNTRY AND EDWARDS PLATEAU

CITY           SKY/WX    TMP DP  RH WIND       PRES   REMARKS
LLANO          CLEAR     93  63  36 MISG        N/A
HORSESHOE BAY  FAIR      89  65  45 CALM      30.05F
KERRVILLE      MOSUNNY   89  65  44 S5        30.06F
FREDERICKSBRG  MOSUNNY   87  60  39 S7        30.06F
ROCKSPRINGS    CLEAR     86  66  51 S9        30.10F
HONDO          MOSUNNY   90  66  45 S7        30.04F
UVALDE         PTCLDY    88  66  48 E5        30.02F
DEL RIO        SUNNY     92  67  43 S10       29.98F
$$

SOUTHEAST TEXAS

CITY           SKY/WX    TMP DP  RH WIND       PRES   REMARKS
COLLEGE STN    MOSUNNY   89  68  49 S9        30.04S
CALDWELL       MOCLDY    88  66  48 CALM      30.06S
CROCKETT       CLEAR     90  64  43 SW6       30.07S
BRENHAM        MOSUNNY   88  72  59 CALM      30.05R
HUNTSVILLE     SUNNY     90  66  45 S6        30.04F
CONROE         MOSUNNY   87  65  47 SE6       30.05F
HOUSTON BUSH   CLOUDY    84  72  67 E10       30.05S
HOUSTON HOBBY  CLOUDY    83  73  72 SE6       30.05R
PERLAND        CLOUDY    83  74  74 E3        30.06F
WHARTON        CLOUDY    81  71  72 SE12      30.06S
$$

THE UPPER TEXAS COAST

CITY           SKY/WX    TMP DP  RH WIND       PRES   REMARKS
ORANGE         CLOUDY    85  68  55 CALM      30.08R
PORT ARTHUR    CLOUDY    86  72  62 N5        30.05S
GALVESTON      TSTM      80  73  79 E10G21    30.04F
ANGLETON         N/A     74  72  93 CALM      30.06F THUNDER
BAY CITY       CLOUDY    75  73  95 E3        30.06F
$$

TEXAS COASTAL BEND, RIO GRANDE PLAINS DEEP SOUTH TEXAS

CITY           SKY/WX    TMP DP  RH WIND       PRES   REMARKS
VICTORIA       PTSUNNY   80  75  84 SE5       30.03S
BEEVILLE       MOCLDY    91  72  54 CALM      29.99F
ROCKPORT       PTSUNNY   92  73  53 SE13      30.00S THUNDER
PORT ARANSAS   PTCLDY    88  76  68 SE10G17   30.01R
PORT LAVACA    LGT RAIN  77  74  92 E7        30.03R
CORPUS CHRISTI PTSUNNY   79  70  73 NW20G29   29.99R THUNDER
KINGSVILLE NAS PTSUNNY   92  77  61 SE16G29   29.97F
COTULLA        MOSUNNY   93  70  46 SE8       29.98F
LAREDO         MOSUNNY   92  71  50 CALM      29.98F
BROWNSVILLE    HVY RAIN  83  76  79 E15       29.96F
PORT ISABEL    TSTM      83  78  85 E12       29.98F
HEBBRONVILLE   NOT AVBL
MCALLEN        MOSUNNY   93  72  50 S12G20    29.96F
WESLACO        MOSUNNY   89  71  55 E15       29.97S
FALFURRIAS     PTCLDY    94  71  46 E7G16     29.96F
EDINBURG       CLEAR     94  70  45 S12G17    29.97S
$$


USA.gov is the U.S. government's official web portal to all federal, state and local government web resources and services.